Location: Wild Duck Observatory
(38.2456°N, 85.2898°W)
Time: 18:36:36
(UTC-05:00)

ISS - Visible Passes

Search period start: 19 February 2018 00:00
Search period end: 01 March 2018 00:00
Orbit: 403 x 407 km, 51.6° (Epoch: 20 February)

Date Brightness Start Highest point End Pass type
(mag) Time Alt. Az. Time Alt. Az. Time Alt. Az.
24 Feb -1.2 06:40:50 10° S 06:43:25 22° SE 06:46:02 10° E visible
25 Feb -0.6 05:50:24 10° SE 05:51:22 11° SE 05:52:22 10° ESE visible
26 Feb -3.3 06:31:58 10° SW 06:35:11 59° SE 06:38:25 10° ENE visible
27 Feb -2.0 05:41:19 18° S 05:43:01 28° SE 05:45:52 10° ENE visible
28 Feb -0.7 04:51:46 13° ESE 04:51:46 13° ESE 04:52:44 10° E visible
28 Feb -3.6 06:24:27 14° WSW 06:27:03 52° NW 06:30:16 10° NE visible
